• En España
  • Lista de países
  • Para 7 días
  • Temperatura del agua
  • Mapa Satelital
  • El tiempo en el mapa
  • Informadores
  • user-avatar
    Iniciar sesión

    Tiempo cada hora Gabrovo

    Hoy, 19 Septiembre, Miércoles

    Tiempo Temperatura Precipitaciones Viento Presión Humedad
    00:00 +13°C° 0 mm 1 mps 706 mmHg 70%
    01:00 +13°C° 0 mm 1 mps 706 mmHg 72%
    02:00 +12°C° 0 mm 1 mps 706 mmHg 73%
    03:00 +12°C° 0 mm 1 mps 706 mmHg 74%
    04:00 +12°C° 0 mm 1 mps 706 mmHg 75%
    05:00 +12°C° 0 mm 1 mps 706 mmHg 77%
    06:00 +13°C° 0 mm 1 mps 706 mmHg 72%
    07:00 +14°C° 0 mm 1 mps 707 mmHg 67%
    08:00 +15°C° 0 mm 0 mps 707 mmHg 62%
    09:00 +18°C° 0 mm 1 mps 707 mmHg 56%
    10:00 +20°C° 0 mm 1 mps 707 mmHg 49%
    11:00 +21°C° 0 mm 2 mps 708 mmHg 43%
    12:00 +23°C° 0 mm 2 mps 708 mmHg 39%
    13:00 +24°C° 0 mm 2 mps 707 mmHg 35%
    14:00 +25°C° 0 mm 2 mps 707 mmHg 32%
    15:00 +24°C° 0 mm 2 mps 707 mmHg 33%
    16:00 +24°C° 0 mm 2 mps 706 mmHg 34%
    17:00 +24°C° 0 mm 2 mps 706 mmHg 35%
    18:00 +20°C° 0 mm 2 mps 706 mmHg 42%
    19:00 +18°C° 0 mm 2 mps 706 mmHg 48%
    20:00 +16°C° 0 mm 2 mps 706 mmHg 54%
    21:00 +15°C° 0 mm 1 mps 706 mmHg 59%
    22:00 +14°C° 0 mm 1 mps 706 mmHg 64%
    23:00 +14°C° 0 mm 1 mps 706 mmHg 68%

    Mañana, 20 Septiembre, Jueves

    Tiempo Temperatura Precipitaciones Viento Presión Humedad
    00:00 +13°C° 0 mm 1 mps 706 mmHg 71%
    01:00 +13°C° 0 mm 1 mps 706 mmHg 73%
    02:00 +12°C° 0 mm 1 mps 706 mmHg 75%
    03:00 +12°C° 0 mm 1 mps 705 mmHg 76%
    04:00 +12°C° 0 mm 1 mps 705 mmHg 76%
    05:00 +12°C° 0 mm 1 mps 705 mmHg 77%
    06:00 +13°C° 0 mm 1 mps 705 mmHg 71%
    07:00 +15°C° 0 mm 1 mps 706 mmHg 65%
    08:00 +15°C° 0 mm 0 mps 706 mmHg 58%
    09:00 +19°C° 0 mm 1 mps 706 mmHg 51%
    10:00 +21°C° 0 mm 1 mps 707 mmHg 43%
    11:00 +23°C° 0 mm 1 mps 707 mmHg 35%
    12:00 +24°C° 0 mm 2 mps 707 mmHg 32%
    13:00 +25°C° 0 mm 2 mps 706 mmHg 29%
    14:00 +26°C° 0 mm 2 mps 706 mmHg 26%
    15:00 +25°C° 0 mm 2 mps 706 mmHg 28%
    16:00 +25°C° 0 mm 2 mps 706 mmHg 30%
    17:00 +25°C° 0 mm 2 mps 705 mmHg 32%
    18:00 +23°C° 0 mm 2 mps 705 mmHg 38%
    19:00 +19°C° 0 mm 2 mps 705 mmHg 44%
    20:00 +18°C° 0 mm 1 mps 705 mmHg 49%
    21:00 +18°C° 0 mm 1 mps 705 mmHg 53%
    22:00 +16°C° 0 mm 1 mps 705 mmHg 56%
    23:00 +15°C° 0 mm 1 mps 705 mmHg 60%

    Pasado mañana, 21 Septiembre, Viernes

    Tiempo Temperatura Precipitaciones Viento Presión Humedad
    00:00 +15°C° 0 mm 1 mps 705 mmHg 61%
    01:00 +15°C° 0 mm 1 mps 705 mmHg 62%
    02:00 +15°C° 0 mm 1 mps 705 mmHg 63%
    03:00 +14°C° 0 mm 1 mps 704 mmHg 63%
    04:00 +14°C° 0 mm 1 mps 704 mmHg 63%
    05:00 +14°C° 0 mm 1 mps 704 mmHg 63%
    06:00 +15°C° 0 mm 1 mps 705 mmHg 60%
    07:00 +18°C° 0 mm 1 mps 705 mmHg 56%
    08:00 +19°C° 0 mm 1 mps 705 mmHg 52%
    09:00 +21°C° 0 mm 1 mps 706 mmHg 47%
    10:00 +23°C° 0 mm 1 mps 706 mmHg 41%
    11:00 +24°C° 0 mm 1 mps 706 mmHg 36%
    12:00 +25°C° 0 mm 1 mps 706 mmHg 33%
    13:00 +26°C° 0 mm 2 mps 706 mmHg 31%
    14:00 +26°C° 0 mm 2 mps 706 mmHg 29%
    15:00 +26°C° 0 mm 2 mps 705 mmHg 31%
    16:00 +26°C° 0 mm 1 mps 705 mmHg 33%
    17:00 +25°C° 0 mm 1 mps 705 mmHg 35%
    18:00 +23°C° 0 mm 1 mps 705 mmHg 38%
    19:00 +22°C° 0 mm 1 mps 704 mmHg 41%
    20:00 +20°C° 0 mm 1 mps 704 mmHg 45%
    21:00 +19°C° 0 mm 1 mps 704 mmHg 49%
    22:00 +18°C° 0 mm 1 mps 704 mmHg 52%
    23:00 +18°C° 0 mm 1 mps 704 mmHg 56%

    22 Septiembre, Sábado

    Tiempo Temperatura Precipitaciones Viento Presión Humedad
    00:00 +16°C° 0 mm 1 mps 704 mmHg 58%
    01:00 +16°C° 0 mm 1 mps 704 mmHg 60%
    02:00 +15°C° 0 mm 1 mps 704 mmHg 63%
    03:00 +15°C° 0 mm 1 mps 704 mmHg 63%
    04:00 +15°C° 0 mm 1 mps 704 mmHg 64%
    05:00 +14°C° 0 mm 1 mps 704 mmHg 65%
    06:00 +16°C° 0 mm 1 mps 704 mmHg 60%
    07:00 +18°C° 0 mm 1 mps 705 mmHg 55%
    08:00 +20°C° 0 mm 1 mps 705 mmHg 51%
    09:00 +22°C° 0 mm 1 mps 705 mmHg 45%
    10:00 +24°C° 0 mm 1 mps 705 mmHg 39%
    11:00 +26°C° 0 mm 1 mps 706 mmHg 33%
    12:00 +27°C° 0 mm 1 mps 705 mmHg 31%
    13:00 +28°C° 0 mm 1 mps 705 mmHg 29%
    14:00 +28°C° 0 mm 1 mps 705 mmHg 27%
    15:00 +28°C° 0 mm 1 mps 704 mmHg 28%
    16:00 +28°C° 0 mm 1 mps 704 mmHg 29%
    17:00 +27°C° 0 mm 1 mps 704 mmHg 30%
    18:00 +25°C° 0 mm 1 mps 704 mmHg 33%
    19:00 +23°C° 0 mm 1 mps 704 mmHg 36%
    20:00 +21°C° 0 mm 1 mps 704 mmHg 40%
    21:00 +20°C° 0 mm 1 mps 704 mmHg 42%
    22:00 +19°C° 0 mm 1 mps 704 mmHg 43%
    23:00 +19°C° 0 mm 1 mps 704 mmHg 45%

    23 Septiembre, Domingo

    Tiempo Temperatura Precipitaciones Viento Presión Humedad
    00:00 +19°C° 0 mm 1 mps 704 mmHg 46%
    01:00 +18°C° 0 mm 1 mps 704 mmHg 46%
    02:00 +18°C° 0 mm 1 mps 703 mmHg 47%
    03:00 +17°C° 0 mm 2 mps 704 mmHg 46%
    04:00 +17°C° 0 mm 2 mps 704 mmHg 46%
    05:00 +16°C° 0 mm 2 mps 704 mmHg 45%
    06:00 +17°C° 0 mm 2 mps 704 mmHg 46%
    07:00 +18°C° 0 mm 3 mps 705 mmHg 46%
    08:00 +19°C° 0 mm 3 mps 705 mmHg 47%
    09:00 +21°C° 0 mm 3 mps 706 mmHg 44%
    10:00 +22°C° 0 mm 3 mps 706 mmHg 42%
    11:00 +25°C° 0 mm 4 mps 707 mmHg 39%
    12:00 +26°C° 0 mm 3 mps 706 mmHg 38%
    13:00 +26°C° 0 mm 3 mps 706 mmHg 37%
    14:00 +27°C° 0 mm 3 mps 706 mmHg 35%
    15:00 +26°C° 0 mm 3 mps 706 mmHg 36%
    16:00 +26°C° 0 mm 3 mps 706 mmHg 37%
    17:00 +25°C° 0 mm 3 mps 706 mmHg 38%
    18:00 +22°C° 0 mm 3 mps 706 mmHg 42%
    19:00 +20°C° 0 mm 3 mps 706 mmHg 46%
    20:00 +18°C° 0 mm 3 mps 706 mmHg 50%
    21:00 +17°C° 0 mm 2 mps 706 mmHg 55%
    22:00 +16°C° 0 mm 2 mps 706 mmHg 61%
    23:00 +15°C° 0 mm 2 mps 706 mmHg 66%

    24 Septiembre, Lunes

    Tiempo Temperatura Precipitaciones Viento Presión Humedad
    00:00 +15°C° 0 mm 2 mps 705 mmHg 70%
    01:00 +14°C° 0 mm 2 mps 705 mmHg 74%
    02:00 +14°C° 0 mm 1 mps 705 mmHg 78%
    03:00 +13°C° 0 mm 1 mps 704 mmHg 79%
    04:00 +13°C° 0 mm 1 mps 704 mmHg 80%
    05:00 +13°C° 0 mm 1 mps 703 mmHg 81%
    06:00 +14°C° 0 mm 1 mps 703 mmHg 78%
    07:00 +15°C° 0 mm 2 mps 703 mmHg 74%
    08:00 +16°C° 0 mm 2 mps 703 mmHg 71%
    09:00 +18°C° 0 mm 2 mps 703 mmHg 64%
    10:00 +20°C° 0 mm 2 mps 703 mmHg 57%
    11:00 +23°C° 0 mm 2 mps 703 mmHg 50%
    12:00 +24°C° 0 mm 2 mps 702 mmHg 46%
    13:00 +26°C° 0 mm 2 mps 702 mmHg 42%
    14:00 +27°C° 0 mm 2 mps 701 mmHg 38%
    15:00 +27°C° 0 mm 2 mps 700 mmHg 38%
    16:00 +27°C° 0 mm 1 mps 700 mmHg 39%
    17:00 +27°C° 0 mm 1 mps 699 mmHg 40%
    18:00 +25°C° 0 mm 2 mps 699 mmHg 44%
    19:00 +23°C° 0 mm 2 mps 700 mmHg 49%
    20:00 +20°C° 0 mm 2 mps 700 mmHg 53%
    21:00 +19°C° 0 mm 3 mps 700 mmHg 54%
    22:00 +17°C° 0 mm 5 mps 701 mmHg 54%
    23:00 +16°C° 0 mm 6 mps 702 mmHg 54%
    Mostrar más